OK1ZXS-6 Weather Reports


time (UTC)temp
C
wind
direction
speed
KPH
gust
KPH
rain 1hr
cm
rain 24hr
cm
rain mn
cm
humidity
%
barometer
mb
20260502213902 6 0 0.0 0.0 0.00 0.00 0.00 69
20260502212403 7 0 0.0 0.0 0.00 0.00 0.00 69
20260502210902 7 0 0.0 0.0 0.00 0.00 0.00 68
20260502205402 7 0 0.0 1.6 0.00 0.00 0.00 68
20260502203902 8 90 0.0 1.6 0.00 0.00 0.00 66
20260502202402 8 90 1.6 6.4 0.00 0.00 0.00 62
20260502200902 8 90 0.0 0.0 0.00 0.00 0.00 63
20260502195401 8 112 0.0 4.8 0.00 0.00 0.00 62
20260502193902 9 112 0.0 0.0 0.00 0.00 0.00 61
20260502192403 10 90 0.0 3.2 0.00 0.00 0.00 58
20260502190904 10 112 0.0 1.6 0.00 0.00 0.00 56
20260502185402 11 67 0.0 0.0 0.00 0.00 0.00 55
20260502183902 12 67 0.0 0.0 0.00 0.00 0.00 52
20260502182402 12 67 0.0 1.6 0.00 0.00 0.00 51
20260502180901 13 45 0.0 0.0 0.00 0.00 0.00 45
20260502163901 17 45 1.6 6.4 0.00 0.00 0.00 36
20260502162403 18 225 1.6 4.8 0.00 0.00 0.00 36
20260502160903 18 225 1.6 9.7 0.00 0.00 0.00 34
20260502150904 20 247 1.6 6.4 0.00 0.00 0.00 30
20260502122401 23 225 3.2 9.7 0.00 0.00 0.00 29
20260502120903 23 225 1.6 6.4 0.00 0.00 0.00 31
20260502115409 22 247 1.6 8.0 0.00 0.00 0.00 30
20260502113902 22 225 1.6 6.4 0.00 0.00 0.00 31
20260502112402 21 225 1.6 6.4 0.00 0.00 0.00 29
20260502110902 21 225 3.2 6.4 0.00 0.00 0.00 35
20260502105402 20 180 3.2 6.4 0.00 0.00 0.00 35
20260502103902 20 112 1.6 9.7 0.00 0.00 0.00 38
20260502102402 19 225 3.2 9.7 0.00 0.00 0.00 39
20260502100902 19 225 3.2 9.7 0.00 0.00 0.00 39
20260502090902 18 225 1.6 6.4 0.00 0.00 0.00 42
20260502070902 18 225 0.0 1.6 0.00 0.00 0.00 50
20260502065402 18 0 0.0 1.6 0.00 0.00 0.00 52
20260502063902 18 0 1.6 3.2 0.00 0.00 0.00 55
20260502062402 17 90 0.0 1.6 0.00 0.00 0.00 57
20260502060901 16 90 0.0 0.0 0.00 0.00 0.00 57
20260502055404 16 90 0.0 0.0 0.00 0.00 0.00 58
20260502053903 15 90 0.0 0.0 0.00 0.00 0.00 58
20260502052402 12 90 0.0 0.0 0.00 0.00 0.00 61
20260502050902 10 112 0.0 1.6 0.00 0.00 0.00 65
20260502045403 7 112 0.0 1.6 0.00 0.00 0.00 70
20260502043901 6 90 0.0 1.6 0.00 0.00 0.00 74
20260502042402 3 90 0.0 1.6 0.00 0.00 0.00 81
20260502040901 1 90 1.6 3.2 0.00 0.00 0.00 83
20260502035402 1 67 0.0 1.6 0.00 0.00 0.00 83
20260502033903 1 90 1.6 3.2 0.00 0.00 0.00 83
20260502032403 1 90 0.0 3.2 0.00 0.00 0.00 82
20260502030904 1 90 0.0 3.2 0.00 0.00 0.00 82
20260502025402 1 90 0.0 1.6 0.00 0.00 0.00 82
20260502023904 1 90 0.0 1.6 0.00 0.00 0.00 82
20260502022403 1 90 0.0 0.0 0.00 0.00 0.00 81
20260502020901 1 112 0.0 1.6 0.00 0.00 0.00 81
20260502015402 2 67 0.0 1.6 0.00 0.00 0.00 80
20260502013903 2 90 0.0 1.6 0.00 0.00 0.00 79
20260502012403 2 90 0.0 1.6 0.00 0.00 0.00 80
20260502010902 2 90 1.6 3.2 0.00 0.00 0.00 79
20260502005402 2 112 1.6 3.2 0.00 0.00 0.00 79
20260502003902 2 90 0.0 0.0 0.00 0.00 0.00 79
20260502002402 2 90 0.0 3.2 0.00 0.00 0.00 77
20260502000901 3 67 0.0 0.0 0.00 0.00 0.00 77
20260501235403 3 67 0.0 3.2 0.00 0.00 0.00 77
20260501233905 3 112 0.0 3.2 0.00 0.00 0.00 76
20260501232403 3 90 0.0 1.6 0.00 0.00 0.00 76
20260501230903 3 112 0.0 1.6 0.00 0.00 0.00 75
20260501225403 3 90 0.0 1.6 0.00 0.00 0.00 75
20260501223901 4 112 0.0 0.0 0.00 0.00 0.00 74
20260501222403 4 90 0.0 1.6 0.00 0.00 0.00 72
20260501220903 5 90 0.0 1.6 0.00 0.00 0.00 72
20260501215401 5 90 0.0 0.0 0.00 0.00 0.00 72